MGGTMHTG

Guest
Details From MGGT - La Aurora
To MHTG - Tegucigalpa Toncontin Intl
Flight Number -
Tags generated
Created
Modified
Stats Distance 195 nm / 361 km
Max Altitude 21,900 ft / 6,675 m
Waypoints 5
Social Downloads 3
Likes 0
Share VATSIM

Download

Looking for another format? Having issues loading an existing format? Contact us
Advertisement - Login to hide

Notes

Basic altitude profile: - Ascent Rate: 2500ft/min - Ascent Speed: 250kts - Cruise Altitude: 35000ft - Cruise Speed: 420kts - Descent Rate: 1500ft/min - Descent Speed: 250kts Options: - Use NATs: yes - Use PACOTS: yes - Use low airways: yes - Use high airways: yes

Route

MGGT LAGOX A552 NOVOG UA552 URNOS MHTG

ID Type Via Altitude (ft/m) Position (lat/lon) Dist (leg/tot) Name
O MGGT APT - 0 / 0 14.58327 / -90.52747 - / 0 nm La Aurora
LAGOX FIX - 9,600 / 2,926 14.51667 / -90.06833 26 / 26 nm
NOVOG FIX A552 (AWY-LO) 19,500 / 5,944 14.36111 / -89.17139 52 / 79 nm
URNOS FIX UA552 (AWY-HI) 21,900 / 6,675 14.32500 / -88.95500 12 / 92 nm
O MHTG APT - 0 / 0 14.06088 / -87.21720 102 / 195 nm Tegucigalpa Toncontin Intl

Altitude Profile

Advertisement - Login to hide

Weather


0- 5 10 15 20 25 30 35+ Temperature / °C

Clouds and Precipitation
Forecast for 2019-10-16 00:00 UTC. Updated 2 hours ago

Ground ~20,000 ft ~40,000 ft Winds

MGGT

Details ICAO MGGT (GUA)
Name La Aurora Intl
Region Guatemala
Timezone America/Guatemala (UTC-6.0)
Stats Elevation 4,952 ft / 1,509 m (AMSL)
Location 14.583300° -90.527500°
Runways 1
Magnetic Variation 0.819° E

METAR

MGGT 152300Z 18008KT 8000 -DZ FEW004 BKN014 BKN080 19/17 Q1022 A3018

Decode

TAF

MGGT 151700Z 1518/1618 15016KT 9999 BKN018 TX23/1520Z TN15/1612Z TEMPO 1518/1618 7000 RADZ BKN010 OVC080 BECMG 1601/1603 09006KT BKN012 BECMG 1606/1608 00000KT BECMG 1615/1617 18008KT BKN018

Decode

Departure Runways

ID Width Length Bearing (true/mag) Surface Threshold Overrun Markings Lighting
02 197 ft / 60 m 9,809 ft / 2,990 m 17.28° / 16.46° ASPHALT 0 ft / 0 m 184 ft / 56 m PREC-APP EDGE THRESHOLD MALS REIL-OMNI
20 197 ft / 60 m 9,809 ft / 2,990 m 197.28° / 196.46° ASPHALT 702 ft / 214 m 223 ft / 68 m PREC-APP EDGE THRESHOLD MALS REIL-OMNI

MHTG

Details ICAO MHTG (TGU)
Name Toncontin Intl
Region Honduras
Timezone America/Tegucigalpa (UTC-6.0)
Stats Elevation 3,307 ft / 1,008 m (AMSL)
Location 14.060300° -87.217400°
Runways 1
Magnetic Variation 0.918° W

METAR

MHTG 152300Z 18008KT 9999 SCT028TCU SCT070 21/17 Q1019 A3009 NOSIG

Decode

TAF

Not found

Destination Runways

ID Width Length Bearing (true/mag) Surface Threshold Overrun Markings Lighting
02 151 ft / 46 m 6,637 ft / 2,023 m 18.85° / 19.76° ASPHALT 1,161 ft / 354 m 187 ft / 57 m APP EDGE THRESHOLD REIL-OMNI
20 151 ft / 46 m 6,637 ft / 2,023 m 198.85° / 199.76° ASPHALT 0 ft / 0 m 239 ft / 73 m APP EDGE THRESHOLD REIL-OMNI

Popular Alternatives